Regional Weather Roundup
Issued by NWS Jackson, KY

Home | Current Version | Previous Version | Graphics & Text | Print | Product List | Glossary Off
Versions: 1 2 3 4 5 6 7 8 9 10 11 12 13 14 15 16 17 18 19 20 21 22 23 24 25 26 27 28 29 30 31 32 33 34 35 36 37 38 39 40 41 42 43 44 45 46 47 48 49 50

000
ASUS43 KJKL 022110
RWRJKL

EAST KENTUCKY HOURLY WEATHER ROUNDUP
NATIONAL WEATHER SERVICE JACKSON KY
500 PM EDT SUN AUG 02 2015

NOTE: "FAIR" INDICATES FEW OR NO CLOUDS BELOW 12,000 FEET WITH
NO SIGNIFICANT WEATHER AND/OR OBSTRUCTIONS TO VISIBILITY.

* THESE REPORTS ARE NOT UNDER NWS QUALITY CONTROL AND MAY NOT
  REPORT WEATHER SUCH AS PRECIPITATION AND FOG.

KYZ079-080-083-085-087-088-110-112-115-119-120-022200
...EASTERN KENTUCKY...

CITY           SKY/WX    TMP DP  RH WIND       PRES   REMARKS
JACKSON        SUNNY     84  58  40 CALM      30.00F
LONDON         SUNNY     86  54  33 E5        29.98F
SOMERSET*      SUNNY     84  55  37 CALM      29.97F
MONTICELLO*    SUNNY     90  65  43 N5        29.99F HX  92
WILLIAMSBURG*  MOSUNNY   84  59  42 NE3       29.97
MIDDLESBORO*   MOSUNNY   87  60  40 S5        29.97F
BLACK MTN*       N/A     72  57  60 E1          N/A
PIKEVILLE APT* SUNNY     81  57  44 CALM      30.01F
BIG SANDY*     PTCLDY    85  61  44 CALM      29.99F
MOREHEAD APT*  CLEAR     84  55  37 CALM      30.00F
$$

KYZ035-036-041-042-044-050-067-078-099-022200
...CENTRAL KENTUCKY...

CITY           SKY/WX    TMP DP  RH WIND       PRES   REMARKS
MT STERLING*   SUNNY     86  59  39 S3        29.99F
FLEMING/MASON* MOSUNNY   84  61  45 SW7       29.98F
DANVILLE*      SUNNY     84  59  42 E3        29.99F
RICHMOND*      SUNNY     84  57  39 N3        29.97F
LEXINGTON      MOSUNNY   86  58  38 W7        29.97F
FRANKFORT      MOSUNNY   86  58  38 VRB3      29.95F
$$

KYZ091>093-OHZ055-061-077-WVZ005-015-034-035-042-022200
...SOUTHERN OHIO/WEST VIRGINIA...

CITY           SKY/WX    TMP DP  RH WIND       PRES   REMARKS
COVINGTON      MOSUNNY   86  62  44 SW8       29.94F
COLUMBUS       MOSUNNY   87  60  40 SW16      29.90F
DAYTON         MOSUNNY   85  61  44 SW16G22   29.92F
WILMINGTON     SUNNY     84  61  45 SW15      29.93F
HUNTINGTON     PTSUNNY   86  58  38 VRB7      29.97S
CHARLESTON     MOSUNNY   84  58  40 SE6       29.98F
PINEVILLE*     SUNNY     82  58  43 MISG      30.07F
BECKLEY        SUNNY     78  51  38 CALM      30.07F
BLUEFIELD      MOSUNNY   80  51  36 VRB5      30.09F
$$

VAZ002-007-008-TNZ017-027-036-066-071-022200
...SOUTHWEST VIRGINIA/EAST TENNESSEE...

CITY           SKY/WX    TMP DP  RH WIND       PRES   REMARKS
WISE*          SUNNY     81  46  30 CALM      30.08S
ABINGDON*      SUNNY     85  44  23 E5        30.03S
BRISTOL        MOSUNNY   89  51  27 N6        29.98F
KNOXVILLE      MOSUNNY   89  59  36 NW6       29.94F
OAK RIDGE      SUNNY     91  55  29 VRB3      29.96F
CROSSVILLE     SUNNY     84  52  33 CALM      30.01F
NASHVILLE      PTSUNNY   90  56  31 VRB3      29.95S
$$

...KEY TO REMARKS...
VSB - VISIBILITY IN MILES
WCI - WIND CHILL INDEX
HX  - HEAT INDEX

$$



USA.gov is the U.S. government's official web portal to all federal, state and local government web resources and services.